Content
SEND FEEDBACK

Daily
Averages
Monthly
Summary
United States of America

TAMUNING, GUAM


Home > North America > United States > Guam
Elevation: 250 feet     Latitude: 13 29N     Longitude: 144 47E

WEATHER
 
SELECT A DAY
Number of Records: 342,764;   Date Range: 1/1/95 - 9/22/14
 
SHARE

PRINT THIS DATA

[ ← Previous Day ]
WEATHER ALMANAC - FEBRUARY 10, 2013
[ Next Day → ]
[ °C ]   °F
Weather ElementAverageHighLow
Temperature78.1 °F84.2 °F (1:29 pm)75.2 °F (8:43 pm)
Dewpoint73.5 °F75.2 °F (4:30 am)71.6 °F (11:13 pm)
Humidity86.1 %94 % (4:30 am)70 % (12:55 pm)
Barometer29.86 in29.92 in (9:51 am)29.81 in (3:55 pm)
Wind Speed13.2 mph21.9 mph (8:27 pm)
Wind Gust28.8 mph (8:27 pm)
Weather ElementAverage
Visibility9.7 mi
Wind DirectionENE (68.3 °)

Weather ElementTotal
Precipitation0.14 in
Cooling Degree Days14.7 (Base 65)
Growing Degree Days29.7 (Base 50)
Averaged from 126 records on February 10, 2013
WEATHER CONDITIONS BREAKOUT
WIND DIRECTION BREAKOUT
WEATHER BY HOUR - FEBRUARY 10, 2013
[ °C ]   °F
Local TimeTemperatureDewpointHumidityBarometerVisibilityWind DirectionWind SpeedGust SpeedPrecipitationEventsConditions
12:40 AM77.0 °F73.4 °F89 %29.87 in10.0 miENE (60°)10.4 mphMostly Cloudy
12:47 AM77.0 °F73.4 °F89 %29.87 in10.0 miENE (70°)10.4 mphScattered Clouds
12:55 AM77.0 °F73.8 °F90 %29.86 in10.0 miENE (60°)10.4 mphScattered Clouds
1:55 AM76.8 °F74.1 °F91 %29.85 in10.0 miENE (60°)9.2 mphScattered Clouds
1:58 AM77.0 °F73.4 °F89 %29.85 in10.0 miENE (60°)9.2 mphMostly Cloudy
2:31 AM77.0 °F73.4 °F89 %29.84 in10.0 miENE (60°)11.5 mphMostly Cloudy
2:32 AM77.0 °F73.4 °F89 %29.84 in10.0 miENE (60°)10.4 mphScattered Clouds
2:55 AM76.6 °F73.8 °F91 %29.84 in10.0 miENE (60°)10.4 mphScattered Clouds
2:59 AM77.0 °F73.4 °F89 %29.84 in10.0 miENE (60°)10.4 mphMostly Cloudy
3:10 AM77.0 °F73.4 °F89 %29.84 in10.0 miENE (60°)9.2 mphMostly Cloudy
3:34 AM77.0 °F73.4 °F89 %29.83 in10.0 miENE (60°)11.5 mphMostly Cloudy
3:36 AM77.0 °F73.4 °F89 %29.83 in10.0 miENE (70°)9.2 mphScattered Clouds
3:38 AM77.0 °F73.4 °F89 %29.83 in10.0 miENE (70°)8.1 mphMostly Cloudy
3:47 AM77.0 °F73.4 °F89 %29.83 in10.0 miENE (70°)11.5 mphMostly Cloudy
3:54 AM77.0 °F73.4 °F89 %29.83 in10.0 miENE (60°)11.5 mphScattered Clouds
3:55 AM77.0 °F73.9 °F90 %29.83 in10.0 miENE (60°)11.5 mphScattered Clouds
4:00 AM77.0 °F73.4 °F89 %29.83 in9.0 miENE (60°)11.5 mphRainLight Rain
4:11 AM77.0 °F73.4 °F89 %29.83 in10.0 miENE (70°)8.1 mphMostly Cloudy
4:14 AM77.0 °F73.4 °F89 %29.83 in10.0 miEast (80°)13.8 mphMostly Cloudy
4:17 AM77.0 °F73.4 °F89 %29.83 in10.0 miENE (70°)11.5 mphMostly Cloudy
4:26 AM77.0 °F73.4 °F89 %29.83 in10.0 miEast (80°)10.4 mphMostly Cloudy
4:30 AM77.0 °F75.2 °F94 %29.83 in10.0 miENE (70°)10.4 mphMostly Cloudy
4:33 AM77.0 °F75.2 °F94 %29.83 in10.0 miENE (70°)10.4 mphMostly Cloudy
4:36 AM77.0 °F75.2 °F94 %29.83 in10.0 miENE (70°)9.2 mphScattered Clouds
4:47 AM77.0 °F73.4 °F89 %29.83 in10.0 miENE (70°)11.5 mphMostly Cloudy
4:49 AM77.0 °F73.4 °F89 %29.83 in10.0 miEast (80°)11.5 mphMostly Cloudy
4:53 AM77.0 °F75.2 °F94 %29.83 in10.0 miENE (60°)12.7 mphMostly Cloudy
4:54 AM77.0 °F75.2 °F94 %29.83 in10.0 miENE (60°)12.7 mphMostly Cloudy
4:55 AM76.8 °F74.5 °F92 %29.83 in10.0 miENE (60°)12.7 mph0.00 inMostly Cloudy
4:56 AM77.0 °F75.2 °F94 %29.83 in10.0 miENE (60°)12.7 mphMostly Cloudy
5:43 AM77.0 °F73.4 °F89 %29.85 in10.0 miENE (70°)10.4 mphMostly Cloudy
5:48 AM77.0 °F73.4 °F89 %29.85 in10.0 miENE (70°)13.8 mphMostly Cloudy
5:53 AM77.0 °F73.4 °F89 %29.85 in10.0 miEast (80°)13.8 mphMostly Cloudy
5:55 AM77.0 °F73.2 °F88 %29.85 in10.0 miEast (80°)11.5 mphMostly Cloudy
5:56 AM77.0 °F73.4 °F89 %29.85 in10.0 miEast (80°)10.4 mphMostly Cloudy
5:58 AM77.0 °F73.4 °F89 %29.85 in10.0 miEast (80°)10.4 mphMostly Cloudy
6:00 AM77.0 °F73.4 °F89 %29.85 in10.0 miEast (80°)11.5 mphMostly Cloudy
6:04 AM77.0 °F73.4 °F89 %29.85 in10.0 miEast (80°)12.7 mphMostly Cloudy
6:08 AM77.0 °F73.4 °F89 %29.86 in10.0 miEast (80°)10.4 mphMostly Cloudy
6:12 AM77.0 °F73.4 °F89 %29.86 in10.0 miENE (70°)13.8 mphMostly Cloudy
6:21 AM77.0 °F73.4 °F89 %29.86 in10.0 miEast (80°)12.7 mphMostly Cloudy
6:28 AM77.0 °F73.4 °F89 %29.86 in10.0 miENE (70°)11.5 mphMostly Cloudy
6:29 AM77.0 °F73.4 °F89 %29.86 in10.0 miENE (70°)11.5 mphMostly Cloudy
6:32 AM77.0 °F73.4 °F89 %29.87 in10.0 miEast (80°)10.4 mphMostly Cloudy
6:35 AM77.0 °F73.4 °F89 %29.87 in10.0 miEast (80°)12.7 mphMostly Cloudy
6:41 AM77.0 °F73.4 °F89 %29.87 in10.0 miEast (80°)11.5 mphMostly Cloudy
6:46 AM77.0 °F73.4 °F89 %29.87 in10.0 miEast (80°)11.5 mphScattered Clouds
6:53 AM77.0 °F73.4 °F89 %29.87 in10.0 miENE (70°)10.4 mphMostly Cloudy
6:55 AM77.0 °F73.4 °F89 %29.87 in10.0 miENE (70°)13.8 mphScattered Clouds
7:01 AM77.0 °F73.4 °F89 %29.88 in10.0 miENE (70°)12.7 mphMostly Cloudy
7:03 AM77.0 °F73.4 °F89 %29.88 in10.0 miENE (70°)11.5 mphScattered Clouds
7:07 AM77.0 °F73.4 °F89 %29.88 in10.0 miEast (80°)10.4 mphMostly Cloudy
7:10 AM77.0 °F73.4 °F89 %29.88 in10.0 miENE (70°)10.4 mphScattered Clouds
7:14 AM77.0 °F73.4 °F89 %29.88 in10.0 miEast (80°)12.7 mphMostly Cloudy
7:18 AM77.0 °F73.4 °F89 %29.88 in10.0 miENE (70°)12.7 mphMostly Cloudy
7:22 AM77.0 °F73.4 °F89 %29.88 in10.0 miENE (70°)12.7 mphMostly Cloudy
7:41 AM78.8 °F73.4 °F83 %29.89 in10.0 miENE (70°)15.0 mphScattered Clouds
7:55 AM78.6 °F73.9 °F85 %29.89 in10.0 miENE (70°)13.8 mphScattered Clouds
8:55 AM80.1 °F74.3 °F82 %29.91 in10.0 miENE (70°)15.0 mphScattered Clouds
9:51 AM80.6 °F73.4 °F79 %29.92 in10.0 miENE (70°)13.8 mphMostly Cloudy
9:55 AM81.7 °F74.1 °F78 %29.92 in10.0 miENE (70°)16.1 mphMostly Cloudy
10:10 AM80.6 °F73.4 °F79 %29.92 in10.0 miENE (70°)16.1 mphScattered Clouds
10:12 AM82.4 °F73.4 °F74 %29.91 in10.0 miENE (70°)15.0 mphMostly Cloudy
10:22 AM82.4 °F73.4 °F74 %29.91 in10.0 miEast (80°)13.8 mphScattered Clouds
10:55 AM82.2 °F73.6 °F75 %29.90 in10.0 miENE (70°)12.7 mphPartly Cloudy
11:55 AM82.9 °F73.8 °F74 %29.88 in10.0 miEast (80°)12.7 mphClear
12:55 PM84.0 °F73.4 °F70 %29.86 in10.0 miENE (70°)13.8 mphScattered Clouds
1:29 PM84.2 °F73.4 °F70 %29.85 in10.0 miENE (60°)17.3 mphMostly Cloudy
1:35 PM84.2 °F73.4 °F70 %29.85 in10.0 miEast (80°)17.3 mphScattered Clouds
1:36 PM84.2 °F73.4 °F70 %29.85 in10.0 miEast (80°)18.4 mphMostly Cloudy
1:40 PM84.2 °F73.4 °F70 %29.84 in10.0 miEast (80°)16.1 mphScattered Clouds
1:41 PM84.2 °F73.4 °F70 %29.84 in10.0 miENE (70°)16.1 mphMostly Cloudy
1:53 PM84.2 °F73.4 °F70 %29.84 in10.0 miENE (70°)17.3 mphScattered Clouds
1:55 PM83.8 °F73.8 °F72 %29.84 in10.0 miENE (70°)15.0 mphScattered Clouds
2:55 PM83.1 °F73.8 °F73 %29.82 in10.0 miENE (70°)15.0 mphScattered Clouds
3:55 PM83.5 °F72.9 °F70 %29.81 in10.0 miENE (60°)12.7 mphClear
4:55 PM82.0 °F72.0 °F71 %29.83 in10.0 miENE (70°)15.0 mphClear
5:55 PM79.0 °F73.0 °F82 %29.83 in10.0 miENE (60°)12.7 mphScattered Clouds
6:00 PM78.8 °F73.4 °F83 %29.84 in10.0 miENE (70°)13.8 mphMostly Cloudy
6:02 PM78.8 °F73.4 °F83 %29.84 in10.0 miENE (70°)15.0 mphScattered Clouds
6:05 PM78.8 °F73.4 °F83 %29.84 in10.0 miENE (60°)15.0 mphMostly Cloudy
6:11 PM78.8 °F73.4 °F83 %29.84 in10.0 miENE (70°)12.7 mphScattered Clouds
6:43 PM78.8 °F73.4 °F83 %29.84 in10.0 miENE (60°)11.5 mphMostly Cloudy
6:55 PM78.3 °F73.0 °F84 %29.84 in10.0 miENE (70°)13.8 mphMostly Cloudy
7:02 PM78.8 °F73.4 °F83 %29.85 in10.0 miENE (70°)12.7 mphScattered Clouds
7:03 PM78.8 °F73.4 °F83 %29.85 in10.0 miENE (60°)11.5 mphMostly Cloudy
7:19 PM78.8 °F73.4 °F83 %29.85 in10.0 miENE (60°)15.0 mphMostly Cloudy
7:22 PM78.8 °F73.4 °F83 %29.86 in10.0 miENE (60°)12.7 mphMostly Cloudy
7:26 PM78.8 °F73.4 °F83 %29.85 in10.0 miENE (60°)12.7 mphRainLight Rain
7:34 PM78.8 °F73.4 °F83 %29.86 in10.0 miNE (50°)16.1 mphRainLight Rain
7:37 PM78.8 °F73.4 °F83 %29.86 in10.0 miENE (60°)15.0 mphMostly Cloudy
7:55 PM78.3 °F73.2 °F84 %29.86 in10.0 miENE (70°)13.8 mph0.00 inMostly Cloudy
7:57 PM78.8 °F73.4 °F83 %29.86 in10.0 miEast (80°)13.8 mphMostly Cloudy
7:58 PM78.8 °F73.4 °F83 %29.86 in10.0 miEast (80°)12.7 mphLight Drizzle
7:59 PM78.8 °F73.4 °F83 %29.86 in10.0 miEast (80°)11.5 mphLight Drizzle
8:02 PM78.8 °F73.4 °F83 %29.86 in10.0 miENE (70°)15.0 mphLight Drizzle
8:07 PM78.8 °F73.4 °F83 %29.86 in10.0 miENE (60°)11.5 mphMostly Cloudy
8:27 PM78.8 °F73.4 °F83 %29.87 in8.0 miENE (60°)21.9 mph28.8 mphRainLight Rain
8:43 PM75.2 °F73.4 °F94 %29.87 in10.0 miENE (60°)11.5 mphMostly Cloudy
8:48 PM77.0 °F73.4 °F89 %29.87 in10.0 miENE (60°)11.5 mphMostly Cloudy
8:49 PM77.0 °F73.4 °F89 %29.87 in9.0 miENE (60°)11.5 mphRainLight Rain
8:50 PM77.0 °F73.4 °F89 %29.87 in9.0 miENE (60°)10.4 mphRainRain
8:55 PM76.6 °F74.7 °F94 %29.87 in9.0 miENE (60°)13.8 mph0.05 inRainLight Rain
9:00 PM77.0 °F73.4 °F89 %29.87 in10.0 miENE (70°)16.1 mph21.9 mphMostly Cloudy
9:10 PM77.0 °F73.4 °F89 %29.87 in10.0 miENE (70°)15.0 mphMostly Cloudy
9:22 PM77.0 °F73.4 °F89 %29.87 in10.0 miEast (80°)16.1 mph20.7 mphScattered Clouds
9:30 PM77.0 °F73.4 °F89 %29.87 in10.0 miENE (60°)15.0 mphMostly Cloudy
9:33 PM77.0 °F73.4 °F89 %29.88 in10.0 miENE (60°)15.0 mphScattered Clouds
9:38 PM77.0 °F73.4 °F89 %29.88 in10.0 miENE (70°)15.0 mphMostly Cloudy
9:39 PM77.0 °F73.4 °F89 %29.88 in10.0 miENE (70°)17.3 mphScattered Clouds
9:41 PM77.0 °F73.4 °F89 %29.88 in10.0 miENE (70°)15.0 mphMostly Cloudy
9:55 PM77.4 °F72.9 °F86 %29.88 in10.0 miEast (80°)13.8 mph0.00 inMostly Cloudy
10:21 PM77.0 °F73.4 °F89 %29.88 in9.0 miENE (60°)20.7 mphLight Drizzle
10:32 PM75.2 °F73.4 °F94 %29.88 in9.0 miENE (60°)16.1 mphOvercast
10:37 PM75.2 °F73.4 °F94 %29.88 in9.0 miENE (60°)12.7 mphOvercast
10:55 PM75.7 °F73.8 °F94 %29.88 in10.0 miNE (40°)15.0 mph0.00 inMostly Cloudy
11:04 PM77.0 °F73.4 °F89 %29.88 in7.0 miENE (60°)18.4 mphRainLight Rain
11:06 PM75.2 °F73.4 °F94 %29.88 in4.0 miEast (80°)20.7 mphRainLight Rain
11:13 PM75.2 °F71.6 °F89 %29.88 in2.5 miENE (70°)19.6 mphRainLight Rain
11:14 PM75.2 °F71.6 °F89 %29.88 in3.0 miENE (70°)19.6 mphRainLight Rain
11:26 PM75.2 °F71.6 °F89 %29.88 in9.0 miENE (70°)11.5 mphLight Drizzle
11:27 PM75.2 °F71.6 °F89 %29.88 in10.0 miENE (60°)11.5 mphMostly Cloudy
11:30 PM75.2 °F73.4 °F94 %29.88 in10.0 miENE (60°)12.7 mphOvercast
11:37 PM77.0 °F73.4 °F89 %29.88 in10.0 miENE (60°)15.0 mph21.9 mphMostly Cloudy
11:43 PM77.0 °F73.4 °F89 %29.88 in10.0 miENE (60°)15.0 mphScattered Clouds
11:55 PM76.3 °F72.9 °F89 %29.88 in10.0 miENE (60°)13.8 mph0.09 inScattered Clouds
Hourly data recorded from PGUA, located miles away from Tamuning, Guam







STORIES FROM OUR PARTNERS